Dewpoint
65 63 58 53 49 50 46 43 45 49 51 54 55 53 53 54 54 55 69 66 71 71 71 72 76 75 75 75 75 74 74 74 73 72 71 72 72 71 70 70 70 69 67 67 66 66 66 66 66
48 42 51 47 46 44 46 49 47 48 53 57 57 55 55 53 62 65 67 69 70 70 72 73 75 76 74 74 75 75 74 72 72 71 70 70 71 71 70 70 70 68 67 66 66 66 66 65 65
53 41 28 43 42 44 48 52 51 49 53 55 56 56 55 55 58 63 68 70 71 71 71 72 75 75 74 73 74 74 73 72 71 69 70 70 71 71 69 70 69 67 66 66 66 65 65 65 64
37 35 29 37 39 44 51 51 51 49 52 54 54 55 56 57 62 65 69 70 70 70 71 74 75 74 74 73 73 73 72 71 70 69 69 70 70 70 69 69 69 66 66 65 65 64 64 64 63
39 31 28 38 43 48 51 52 51 52 53 53 55 55 54 56 65 67 68 68 69 70 71 72 74 74 73 72 73 71 71 71 70 69 68 68 71 70 69 68 65 65 65 65 64 63 62 62 62
25 24 34 43 45 47 48 50 50 49 53 55 55 56 59 61 61 63 66 66 68 68 69 70 74 74 73 73 72 71 71 70 70 70 70 69 70 70 69 68 65 64 64 64 62 61 60 61 61
22 21 25 42 46 48 51 55 50 51 53 51 57 55 58 61 62 63 63 64 66 67 68 70 70 71 72 71 72 71 71 70 70 70 70 70 69 69 69 69 67 64 64 64 62 59 58 59 61
19 19 26 35 47 50 51 53 53 59 55 52 58 54 57 62 60 61 63 63 61 61 64 68 69 69 69 69 70 70 69 70 70 70 69 69 69 68 68 68 68 65 65 64 63 61 60 61 63
20 26 26 29 44 52 54 57 61 60 58 59 60 60 60 61 62 63 63 62 61 61 61 64 67 67 69 69 69 69 68 67 68 67 68 68 64 63 63 66 67 68 65 63 63 63 63 64 64
29 33 36 34 48 52 52 49 55 59 58 59 60 61 62 62 62 61 61 60 60 61 62 62 66 67 68 69 67 64 62 64 63 62 62 63 65 66 66 67 67 66 64 64 64 64 63 58 54
36 31 41 49 57 53 53 53 55 57 57 59 59 59 61 61 61 61 60 60 61 61 62 63 62 64 64 66 66 65 64 63 63 63 62 64 65 66 66 66 67 66 66 64 63 59 56 54 55
34 40 53 54 56 56 56 57 57 57 58 59 59 59 60 60 61 61 62 61 62 62 62 62 63 63 63 62 63 60 61 62 62 62 62 62 62 64 64 64 64 63 63 63 61 59 58 56 55
35 46 53 53 55 56 56 56 56 58 59 60 59 59 60 60 60 60 60 61 59 59 59 59 60 61 61 61 61 62 62 61 62 61 61 61 61 61 62 62 62 62 61 61 59 59 58 57 57
43 48 49 48 51 55 55 55 55 58 59 58 58 58 58 58 59 57 57 57 57 58 59 59 59 60 59 59 58 59 60 60 60 60 59 59 59 59 59 59 60 60 60 59 59 59 59 58 57
42 41 46 46 48 51 51 51 54 57 57 57 57 57 57 57 57 56 57 57 57 57 54 54 55 58 58 58 57 56 56 58 58 58 56 57 57 57 57 57 57 58 60 60 59 59 58 57 57
40 48 44 45 44 50 46 44 54 57 55 55 55 55 55 55 55 56 57 57 56 55 53 54 54 54 56 53 53 57 56 57 56 56 55 54 54 54 55 55 55 57 58 60 59 56 55 55 55
40 41 43 45 47 48 48 49 53 56 55 54 54 54 53 53 54 55 57 56 53 54 54 55 53 53 54 52 53 52 51 53 57 58 58 56 57 56 55 56 57 57 56 56 56 56 56 53 53
38 40 42 43 44 45 46 47 55 55 54 54 53 53 53 52 54 56 56 54 54 55 55 54 55 52 51 50 51 50 47 48 56 54 53 53 52 52 52 51 50 55 56 56 56 55 56 56 53
37 40 41 42 44 42 50 53 54 55 55 53 53 52 52 53 54 55 56 54 54 53 55 55 54 52 50 50 50 49 47 49 51 49 51 50 51 50 50 51 49 51 52 52 53 54 55 53 54
31 30 35 38 40 45 46 47 53 53 54 54 52 52 52 53 54 54 54 55 52 55 55 54 54 52 52 51 52 52 50 47 49 50 51 51 51 50 48 49 52 52 52 50 52 54 52 53 54
28 27 26 26 30 48 46 45 48 53 53 55 54 54 54 55 52 52 51 51 51 53 53 54 52 51 52 50 50 49 49 47 47 48 49 50 51 50 49 50 51 52 52 52 51 51 51 50 53
25 30 30 29 26 26 40 40 47 48 50 54 53 54 53 54 51 49 50 52 53 49 50 51 52 51 50 52 49 49 48 48 49 51 52 52 51 52 52 52 53 52 53 52 52 54 52 51 52
28 27 28 26 26 31 41 43 47 47 46 51 53 53 53 48 49 50 51 53 54 52 50 51 50 50 49 50 50 50 49 51 52 53 51 52 50 52 53 53 54 54 52 52 52 52 53 51 52
28 31 30 28 27 33 41 42 44 47 49 50 49 47 47 48 49 50 52 51 50 45 45 47 46 48 48 50 50 51 48 49 49 50 50 50 48 50 51 52 52 52 52 52 53 52 52 52 53
31 29 26 24 23 35 41 41 45 49 50 50 48 48 48 47 47 48 45 44 43 43 44 43 46 46 48 48 49 48 48 47 46 46 47 47 48 49 50 50 51 52 53 53 53 51 51 52 51
29 28 23 19 22 26 41 41 43 48 50 49 49 48 47 48 46 44 42 42 43 44 45 46 46 47 47 47 47 47 47 46 47 46 47 47 48 50 50 50 52 54 53 53 51 51 52 52 51
28 28 29 24 26 34 41 43 47 48 49 48 46 46 46 46 40 41 41 43 43 44 45 46 46 46 46 46 47 47 46 46 46 46 47 46 47 51 51 51 52 53 53 51 50 49 49 50 50
29 32 30 33 29 30 38 38 41 43 44 44 45 45 45 43 39 41 41 40 41 42 44 44 43 44 46 47 47 46 46 46 47 47 46 48 47 51 51 49 48 50 51 50 48 47 48 48 50
31 30 34 34 35 34 33 38 41 39 41 41 40 39 38 36 38 39 39 40 41 41 41 43 42 43 45 45 46 46 47 47 48 46 47 48 48 50 50 48 47 47 48 49 49 48 48 48 49
31 32 34 33 32 38 37 38 39 39 41 40 40 39 37 37 38 38 39 41 41 40 42 43 44 43 44 44 45 47 48 47 48 48 47 49 48 47 48 48 47 47 47 48 48 49 49 49 48
Lifted_Index
4 3 1 0 -0 -0 -0 -1 -2 -2 -2 -3 -3 -2 -2 -2 -2 -3 -3 -4 -5 -5 -5 -6 -6 -6 -6 -6 -5 -5 -4 -4 -3 -2 -2 -2 -2 -1 -1 -1 -0 1 1 2 2 2 2 3 3
5 4 2 0 0 -0 -0 -1 -2 -2 -2 -3 -3 -3 -2 -2 -3 -4 -4 -5 -5 -5 -5 -6 -6 -7 -6 -6 -5 -5 -5 -4 -3 -2 -1 -1 -2 -1 -1 -0 -0 1 1 1 2 2 2 3 3
5 4 2 1 0 -0 -0 -1 -2 -2 -2 -3 -3 -3 -3 -3 -3 -4 -5 -5 -5 -5 -5 -6 -6 -6 -6 -6 -5 -5 -5 -4 -2 -2 -1 -1 -2 -1 -1 -0 0 1 1 1 2 2 2 3 3
4 4 2 1 -0 -1 -1 -1 -2 -2 -2 -2 -3 -4 -4 -3 -4 -5 -5 -6 -6 -5 -6 -6 -6 -6 -6 -5 -5 -5 -4 -3 -2 -2 -2 -2 -2 -1 -1 -0 0 1 1 1 2 2 2 3 3
3 3 2 1 -1 -1 -1 -1 -2 -2 -2 -3 -3 -4 -4 -4 -5 -5 -6 -6 -5 -5 -5 -6 -6 -6 -5 -5 -5 -4 -3 -3 -2 -2 -2 -2 -2 -2 -1 -0 0 1 1 1 2 2 2 3 3
2 2 1 0 -1 -1 -1 -1 -1 -2 -2 -2 -3 -4 -4 -4 -5 -5 -5 -5 -5 -5 -5 -5 -6 -6 -5 -5 -5 -4 -3 -2 -2 -2 -2 -2 -3 -2 -2 -1 -0 0 0 1 1 2 3 3 3
2 2 0 -1 -1 -1 -1 -1 -1 -2 -2 -2 -3 -3 -4 -5 -5 -4 -4 -4 -4 -4 -4 -5 -5 -5 -5 -5 -4 -4 -3 -2 -2 -2 -2 -3 -3 -2 -2 -2 -1 -1 -0 0 1 2 3 2 2
2 2 0 -1 -1 -1 -1 -2 -2 -3 -3 -3 -3 -4 -4 -4 -4 -4 -4 -3 -3 -3 -4 -4 -4 -4 -4 -4 -4 -3 -3 -2 -2 -2 -2 -2 -2 -2 -2 -2 -2 -2 -1 -0 0 1 2 2 1
2 1 -0 -0 -1 -1 -2 -2 -3 -3 -4 -4 -4 -5 -5 -5 -4 -4 -3 -3 -2 -2 -2 -3 -3 -3 -3 -3 -3 -3 -2 -1 -1 -1 -1 -2 -1 -2 -2 -2 -3 -2 -1 -0 0 1 1 1 1
0 -0 -1 -1 -2 -2 -2 -2 -3 -4 -4 -4 -4 -4 -4 -4 -4 -4 -3 -3 -2 -2 -2 -2 -2 -2 -2 -2 -2 -2 -1 -1 -0 -0 -1 -1 -1 -1 -2 -2 -2 -1 -1 -1 0 1 1 1 1
-1 -1 -2 -3 -3 -4 -3 -3 -3 -3 -4 -4 -4 -4 -4 -4 -3 -3 -3 -2 -2 -1 -1 -1 -1 -1 -1 -1 -1 -1 -1 -0 0 -0 -0 -1 -1 -1 -1 -1 -1 -1 -0 0 1 1 1 2 2
-2 -3 -4 -4 -4 -4 -4 -4 -4 -3 -3 -3 -3 -3 -3 -3 -3 -2 -2 -1 -1 -1 -1 -1 -1 -1 -1 -1 -1 -1 -1 -1 -0 0 -0 -0 -0 -0 -0 -0 0 0 0 1 1 1 1 1 1
-2 -3 -4 -4 -3 -3 -3 -3 -3 -3 -3 -3 -3 -3 -2 -2 -2 -1 -1 -0 0 0 0 1 1 1 0 0 0 -0 -0 -0 0 1 1 1 1 1 1 1 1 1 1 1 1 1 1 1 1
-2 -2 -2 -2 -2 -2 -2 -2 -2 -2 -3 -3 -2 -2 -1 -1 -1 -0 -0 0 1 1 2 2 2 2 2 1 1 1 1 1 1 2 2 2 2 3 3 2 2 2 1 1 1 2 1 1 2
-2 -1 -1 -1 -1 -2 -2 -1 -1 -2 -2 -2 -2 -1 -0 -0 0 0 0 1 2 2 3 3 3 3 3 3 2 2 2 2 2 3 3 3 4 4 3 3 3 3 2 2 2 2 2 2 2
-1 -1 -0 -0 -0 -1 -1 -1 -1 -2 -2 -2 -2 -1 -0 0 0 1 1 2 3 3 3 4 4 4 4 4 4 3 3 3 2 3 3 3 3 3 4 4 4 4 4 3 3 3 3 3 3
-1 -1 -0 0 0 -0 -0 -1 -2 -2 -2 -2 -1 -0 0 1 1 1 2 3 3 3 4 4 4 5 5 5 5 5 5 4 3 2 3 3 3 4 4 5 5 5 4 4 4 4 4 4 4
-1 -1 -1 -0 -0 -1 -1 -1 -1 -1 -1 -1 -1 -0 1 1 1 2 3 3 3 3 3 4 4 4 5 5 5 5 5 5 4 4 4 5 5 5 5 6 6 5 5 4 4 4 4 3 3
-1 -1 -1 -1 -1 -1 -1 -1 -0 -0 -0 -0 -1 -0 0 1 2 2 2 2 3 3 3 3 3 4 5 5 5 5 5 5 5 5 6 6 6 6 6 7 6 6 5 5 5 4 4 3 3
-1 -0 -0 -0 -1 -1 -2 -1 -0 0 0 -0 -1 -1 -0 1 2 2 2 2 3 3 3 3 3 4 4 5 5 5 5 5 5 6 6 6 6 7 7 7 6 6 5 5 5 4 4 3 3
0 1 1 1 -0 -1 -2 -1 -0 -0 0 -0 -1 -1 -0 1 2 2 2 3 3 3 3 3 4 4 5 5 5 5 5 5 5 5 5 6 6 6 6 6 6 5 5 5 4 4 4 3 3
1 1 1 1 0 -1 -1 -1 -1 -0 -0 -0 -1 -1 -0 1 2 2 2 3 2 3 3 3 4 4 4 4 5 5 5 5 4 4 5 5 5 5 5 5 5 4 4 4 4 3 3 3 2
1 1 1 1 1 -0 -1 -1 -1 -0 -0 -1 -1 -0 1 1 2 3 2 2 2 2 3 3 4 4 4 4 4 5 5 5 4 4 4 4 4 4 4 4 4 3 3 3 3 2 2 2 2
1 1 1 1 1 -0 -1 -1 -1 -1 -1 -1 -0 0 1 2 3 3 2 2 2 3 3 4 4 4 4 4 4 5 5 5 5 5 5 5 4 4 4 3 3 2 2 2 2 2 1 1 1
1 2 1 1 1 -0 -1 -1 -1 -1 -1 -1 0 1 2 3 3 3 3 3 3 4 4 4 4 4 5 5 5 5 5 5 6 5 5 5 5 4 3 3 2 1 1 1 1 1 1 0 0
1 1 1 1 0 -0 -1 -1 -1 -1 -1 -0 1 2 2 3 3 3 3 3 4 4 4 5 5 5 5 5 5 5 6 6 6 6 6 6 5 4 3 2 1 1 0 1 1 1 1 0 -0
1 1 1 1 0 -0 -1 -1 -0 -0 -0 1 1 2 3 3 4 4 4 4 4 5 5 6 6 6 6 6 6 6 6 6 6 6 6 6 5 4 3 2 1 1 1 1 1 1 1 0 -0
1 1 1 1 0 -0 -0 -0 0 0 1 1 2 2 3 4 4 5 4 4 5 6 6 7 7 6 6 6 6 7 6 6 6 6 6 6 5 4 3 2 2 1 1 1 1 1 1 0 0
1 1 1 0 -0 -0 -0 0 1 1 1 2 2 3 4 4 4 5 5 5 6 7 7 7 7 6 6 6 6 7 6 6 6 6 6 6 5 4 3 3 2 2 1 1 1 1 1 1 1
2 1 1 0 -0 -0 -0 0 1 1 2 2 3 3 4 4 4 4 5 6 6 7 7 7 7 6 6 6 6 6 6 6 6 6 6 5 5 4 3 3 2 2 2 2 1 1 1 1 1